XCO weather

Colac Airport
Victoria, Australia

Public forecast

Using degrees Celsius for public forecast. Weather courtesy of forecast.io.

METAR (pilot weather report)

Closest report is Avalon Airport, 40.1 nm (74.3 km) ENE. Retrieved 2019/03/23 10:00 UTC (19 minutes ago):

YMAV 231000Z AUTO 23007KT 9999 // NCD 20/13 Q1009 RF00.0/001.0

TAF (pilot weather forecast)

Forecast is more than 12 hours old.

Closest forecast is Avalon Airport, 40.1 nm (74.3 km) ENE. Retrieved 2019/03/22 00:00 UTC (1 day ago):

TAF YMAV 222316Z 2300/2324 01014KT 9999 -SHRA NSC FM230300 33014KT CAVOK FM230700 19015KT 9999 -SHRA FEW030 SCT040 FM231000 26008KT 9999 FEW020 BKN030 FM231600 34008KT 9999 FEW020